When you browse on this site, cookies collect data to enhance your experience and personalize the content and advertising you see.
Visit our Privacy Policy to learn more. By continuing to use the site, you agree to this use of cookies and data.
  • In Czech Republic
  • List of Countries
  • For 7 days
  • Water Temperature
  • Weather Map
  • Weather Widgets
  • user-avatar
    Login

    Hourly Weather Ostersund

    Today, 19 September, Thursday

    Time Temperature Precipitation Wind Pressure Humidity
    00:00 +2°C° 0 mm 5 mps 735 mmHg 83%
    01:00 +3°C° 0 mm 4 mps 735 mmHg 85%
    02:00 +3°C° 0 mm 4 mps 735 mmHg 84%
    03:00 +3°C° 0 mm 4 mps 735 mmHg 84%
    04:00 +1°C° 0 mm 4 mps 736 mmHg 84%
    05:00 +3°C° 0 mm 4 mps 736 mmHg 81%
    06:00 +3°C° 0 mm 4 mps 736 mmHg 79%
    07:00 +3°C° 0 mm 4 mps 737 mmHg 77%
    08:00 +3°C° 0 mm 5 mps 737 mmHg 69%
    09:00 +5°C° 0 mm 5 mps 737 mmHg 62%
    10:00 +6°C° 0 mm 5 mps 737 mmHg 55%
    11:00 +7°C° 0 mm 5 mps 737 mmHg 53%
    12:00 +7°C° 0 mm 5 mps 738 mmHg 51%
    13:00 +8°C° 0 mm 4 mps 738 mmHg 50%
    14:00 +7°C° 0.1 mm 4 mps 737 mmHg 54%
    15:00 +7°C° 0.1 mm 4 mps 737 mmHg 58%
    16:00 +6°C° 0.1 mm 4 mps 737 mmHg 63%
    17:00 +5°C° 0 mm 3 mps 737 mmHg 71%
    18:00 +4°C° 0 mm 3 mps 737 mmHg 79%
    19:00 +4°C° 0 mm 2 mps 737 mmHg 88%
    20:00 +4°C° 0 mm 2 mps 737 mmHg 87%
    21:00 +3°C° 0 mm 2 mps 737 mmHg 85%
    22:00 +3°C° 0 mm 2 mps 737 mmHg 84%
    23:00 +3°C° 0 mm 2 mps 737 mmHg 85%

    Tomorrow, 20 September, Friday

    Time Temperature Precipitation Wind Pressure Humidity
    00:00 +3°C° 0 mm 2 mps 736 mmHg 85%
    01:00 +3°C° 0 mm 2 mps 736 mmHg 86%
    02:00 +3°C° 0.6 mm 2 mps 735 mmHg 89%
    03:00 +3°C° 0.6 mm 2 mps 735 mmHg 93%
    04:00 +3°C° 0.6 mm 2 mps 734 mmHg 97%
    05:00 +3°C° 1.1 mm 2 mps 733 mmHg 97%
    06:00 +3°C° 1.1 mm 2 mps 732 mmHg 97%
    07:00 +3°C° 1.1 mm 2 mps 732 mmHg 97%
    08:00 +4°C° 1.2 mm 2 mps 731 mmHg 97%
    09:00 +4°C° 1.2 mm 2 mps 731 mmHg 96%
    10:00 +4°C° 1.2 mm 2 mps 730 mmHg 96%
    11:00 +5°C° 0.9 mm 2 mps 730 mmHg 96%
    12:00 +6°C° 0.9 mm 1 mps 730 mmHg 97%
    13:00 +7°C° 0.9 mm 1 mps 730 mmHg 97%
    14:00 +6°C° 0.6 mm 2 mps 729 mmHg 96%
    15:00 +7°C° 0.6 mm 2 mps 729 mmHg 96%
    16:00 +8°C° 0.6 mm 2 mps 729 mmHg 95%
    17:00 +8°C° 0.2 mm 3 mps 729 mmHg 94%
    18:00 +8°C° 0.2 mm 3 mps 729 mmHg 93%
    19:00 +8°C° 0.2 mm 4 mps 729 mmHg 91%
    20:00 +8°C° 0.2 mm 4 mps 729 mmHg 92%
    21:00 +9°C° 0.2 mm 3 mps 728 mmHg 92%
    22:00 +9°C° 0.2 mm 3 mps 728 mmHg 93%
    23:00 +9°C° 0.2 mm 3 mps 728 mmHg 93%

    Day after tomorrow, 21 September, Saturday

    Time Temperature Precipitation Wind Pressure Humidity
    00:00 +9°C° 0.2 mm 3 mps 728 mmHg 93%
    01:00 +9°C° 0.2 mm 3 mps 728 mmHg 93%
    02:00 +9°C° 0.2 mm 3 mps 728 mmHg 93%
    03:00 +10°C° 0.2 mm 4 mps 728 mmHg 92%
    04:00 +10°C° 0.2 mm 4 mps 728 mmHg 92%
    05:00 +10°C° 0.3 mm 4 mps 728 mmHg 92%
    06:00 +10°C° 0.3 mm 4 mps 729 mmHg 92%
    07:00 +10°C° 0.3 mm 3 mps 729 mmHg 92%
    08:00 +10°C° 0.2 mm 4 mps 729 mmHg 91%
    09:00 +10°C° 0.2 mm 4 mps 730 mmHg 90%
    10:00 +10°C° 0.2 mm 4 mps 730 mmHg 88%
    11:00 +10°C° 0.3 mm 4 mps 731 mmHg 89%
    12:00 +10°C° 0.3 mm 3 mps 731 mmHg 89%
    13:00 +9°C° 0.3 mm 3 mps 732 mmHg 90%
    14:00 +9°C° 0.5 mm 3 mps 732 mmHg 90%
    15:00 +9°C° 0.5 mm 3 mps 732 mmHg 90%
    16:00 +8°C° 0.5 mm 3 mps 732 mmHg 91%
    17:00 +7°C° 0.4 mm 3 mps 733 mmHg 91%
    18:00 +7°C° 0.4 mm 3 mps 733 mmHg 90%
    19:00 +6°C° 0.4 mm 2 mps 734 mmHg 90%
    20:00 +6°C° 0.3 mm 2 mps 734 mmHg 91%
    21:00 +5°C° 0.3 mm 2 mps 735 mmHg 91%
    22:00 +5°C° 0.3 mm 2 mps 735 mmHg 92%
    23:00 +5°C° 0.1 mm 2 mps 736 mmHg 92%

    22 September, Sunday

    Time Temperature Precipitation Wind Pressure Humidity
    00:00 +5°C° 0.1 mm 1 mps 736 mmHg 93%
    01:00 +5°C° 0.1 mm 1 mps 736 mmHg 93%
    02:00 +5°C° 0 mm 1 mps 736 mmHg 93%
    03:00 +4°C° 0 mm 0 mps 737 mmHg 93%
    04:00 +4°C° 0 mm 0 mps 737 mmHg 92%
    05:00 +3°C° 0.1 mm 0 mps 737 mmHg 92%
    06:00 +4°C° 0.1 mm 1 mps 737 mmHg 92%
    07:00 +4°C° 0.1 mm 1 mps 737 mmHg 92%
    08:00 +5°C° 0.2 mm 1 mps 737 mmHg 89%
    09:00 +4°C° 0.2 mm 2 mps 737 mmHg 86%
    10:00 +5°C° 0.2 mm 2 mps 737 mmHg 83%
    11:00 +5°C° 0.3 mm 2 mps 736 mmHg 82%
    12:00 +5°C° 0.3 mm 2 mps 736 mmHg 81%
    13:00 +5°C° 0.3 mm 2 mps 736 mmHg 79%
    14:00 +5°C° 0.2 mm 2 mps 736 mmHg 83%
    15:00 +4°C° 0.2 mm 2 mps 735 mmHg 86%
    16:00 +4°C° 0.2 mm 2 mps 735 mmHg 89%
    17:00 +4°C° 0 mm 2 mps 735 mmHg 90%
    18:00 +4°C° 0 mm 2 mps 735 mmHg 92%
    19:00 +4°C° 0 mm 2 mps 735 mmHg 94%
    20:00 +4°C° 0 mm 1 mps 735 mmHg 94%
    21:00 +4°C° 0 mm 1 mps 735 mmHg 95%
    22:00 +4°C° 0 mm 1 mps 735 mmHg 95%
    23:00 +4°C° 0 mm 1 mps 735 mmHg 95%

    23 September, Monday

    Time Temperature Precipitation Wind Pressure Humidity
    00:00 +4°C° 0 mm 1 mps 735 mmHg 95%
    01:00 +5°C° 0 mm 1 mps 735 mmHg 94%
    02:00 +4°C° 0 mm 1 mps 735 mmHg 94%
    03:00 +4°C° 0 mm 1 mps 735 mmHg 94%
    04:00 +4°C° 0 mm 1 mps 735 mmHg 94%
    05:00 +4°C° 0 mm 1 mps 735 mmHg 93%
    06:00 +4°C° 0 mm 1 mps 735 mmHg 93%
    07:00 +3°C° 0 mm 2 mps 735 mmHg 92%
    08:00 +3°C° 0 mm 2 mps 735 mmHg 91%
    09:00 +4°C° 0 mm 2 mps 735 mmHg 90%
    10:00 +4°C° 0 mm 2 mps 735 mmHg 89%
    11:00 +4°C° 0.1 mm 2 mps 735 mmHg 88%
    12:00 +5°C° 0.1 mm 2 mps 735 mmHg 87%
    13:00 +5°C° 0.1 mm 2 mps 735 mmHg 86%
    14:00 +5°C° 0.1 mm 2 mps 735 mmHg 87%
    15:00 +5°C° 0.1 mm 2 mps 735 mmHg 87%
    16:00 +5°C° 0.1 mm 2 mps 735 mmHg 87%
    17:00 +4°C° 0 mm 2 mps 735 mmHg 90%
    18:00 +3°C° 0 mm 2 mps 735 mmHg 92%
    19:00 +4°C° 0 mm 1 mps 735 mmHg 95%
    20:00 +4°C° 0 mm 1 mps 736 mmHg 94%
    21:00 +3°C° 0 mm 2 mps 736 mmHg 94%
    22:00 +3°C° 0 mm 2 mps 736 mmHg 94%
    23:00 +3°C° 0 mm 2 mps 736 mmHg 93%

    24 September, Tuesday

    Time Temperature Precipitation Wind Pressure Humidity
    00:00 +3°C° 0 mm 2 mps 736 mmHg 93%
    01:00 +2°C° 0 mm 2 mps 736 mmHg 92%
    02:00 +2°C° 0 mm 2 mps 735 mmHg 93%
    03:00 +1°C° 0 mm 2 mps 735 mmHg 94%
    04:00 -1°C° 0 mm 2 mps 735 mmHg 95%
    05:00 -1°C° 0 mm 2 mps 735 mmHg 94%
    06:00 +1°C° 0 mm 2 mps 735 mmHg 92%
    07:00 +1°C° 0 mm 2 mps 735 mmHg 90%
    08:00 +2°C° 0 mm 2 mps 735 mmHg 87%
    09:00 +3°C° 0 mm 2 mps 735 mmHg 83%
    10:00 +3°C° 0 mm 3 mps 735 mmHg 79%
    11:00 +3°C° 0 mm 3 mps 735 mmHg 82%
    12:00 +4°C° 0 mm 3 mps 734 mmHg 84%
    13:00 +4°C° 0 mm 3 mps 734 mmHg 86%
    14:00 +5°C° 0 mm 2 mps 734 mmHg 85%
    15:00 +5°C° 0 mm 2 mps 734 mmHg 84%
    16:00 +5°C° 0 mm 2 mps 734 mmHg 84%
    17:00 +4°C° 0 mm 2 mps 735 mmHg 86%
    18:00 +5°C° 0 mm 1 mps 735 mmHg 89%
    19:00 +4°C° 0 mm 1 mps 735 mmHg 91%
    20:00 +4°C° 0 mm 1 mps 735 mmHg 93%
    21:00 +3°C° 0 mm 1 mps 735 mmHg 94%
    22:00 +2°C° 0 mm 2 mps 735 mmHg 95%
    23:00 +2°C° 0 mm 2 mps 735 mmHg 96%
    Show more